Location: *
(41.7492°S, 135.4150°W)
Time: 03:39:33
(UTC+00:00)

BEESAT 3 - Visible Passes

Search period start: 29 June 2022 00:00
Search period end: 09 July 2022 00:00
Orbit: 455 x 503 km, 64.9° (Epoch: 28 June)

Date Brightness Start Highest point End Pass type
(mag) Time Alt. Az. Time Alt. Az. Time Alt. Az.
29 Jun ? 14:13:42 47° NE 14:13:42 47° NE 14:16:26 10° NE visible
30 Jun ? 13:47:51 19° NE 13:47:51 19° NE 13:49:02 10° NE visible
30 Jun ? 15:22:07 11° WNW 15:22:07 11° WNW 15:22:55 10° NW visible
01 Jul ? 14:56:20 11° NW 14:56:20 11° NW 14:56:42 10° NW visible
03 Jul ? 04:07:24 10° N 04:07:31 11° N 04:07:31 11° N visible
04 Jul ? 03:40:17 10° N 03:41:45 20° NNE 03:41:45 20° NNE visible
05 Jul ? 03:13:14 10° N 03:15:55 25° NE 03:15:55 25° NE visible
05 Jul ? 04:49:58 10° WNW 04:50:11 11° WNW 04:50:11 11° WNW visible
06 Jul ? 02:46:18 10° NNE 02:48:58 19° ENE 02:50:00 17° E visible
06 Jul ? 04:22:17 10° WNW 04:24:15 24° W 04:24:15 24° W visible
07 Jul ? 02:19:31 10° NNE 02:21:39 15° ENE 02:23:47 10° ESE visible
07 Jul ? 03:54:41 10° NW 03:58:10 41° SW 03:58:15 41° SW visible
08 Jul ? 03:27:09 10° NW 03:30:43 54° SW 03:32:08 32° S visible
